KDEN

Denver International Airport

Airport
ICAO code
KDEN
IATA Code
DEN
Summary
ICAO Region
NAM
ICAO Territory
Location

Denver, Colorado,

Serving
Denver
Elevation
5431 ft
Coordinates
39° 51' 34" N , 104° 40' 19" W
KCC
Airport RE
Hot and High Operations
Metar
Observation
KDEN 271453Z 18008KT 10SM FEW025 FEW045 SCT150 M02/M04 A2994 RMK AO2 SLP138 T10221044 58005
Station
Denver, Denver International Airport
Date/Time
2022-11-27 14:53:00
Wind direction
180°
Wind speed
08 kts
Lowest cloud amount
few clouds
Temperature
-2.2°C
Dew point
-4.4°C
Humidity
84%
Weather condition
n/a

Description

International airport serving the City of Denver.

Climatology

Cold Semi-arid climate (Köppen climate classification BSk). - Hot, sometimes extremely hot summers and cold, sometimes very cold winters. Some snowfall during the winter. Areas featuring cold semi-arid climates are sometimes subject to major temperature swings during a 24 hour period.

SKYbrary Partners:

Safety knowledge contributed by: